Regional Weather Roundup
Issued by NWS

Home | Current Version | Previous Version | Text Only | Print | Product List | Glossary Off
Versions: 1 2 3 4 5 6 7 8 9 10 11 12 13 14 15 16 17 18 19 20 21 22 23 24 25 26 27 28 29 30 31 32 33 34 35 36 37 38 39 40 41 42 43 44 45 46 47 48 49 50

000
ASUS43 KLMK 010410
RWRKY
KENTUCKY REGIONAL WEATHER ROUNDUP
NATIONAL WEATHER SERVICE LOUISVILLE KY
1100 PM EST SAT JAN 31 2015

NOTE "FAIR" INDICATES FEW OR NO CLOUDS BELOW 12,000 FEET
WITH NO SIGNIFICANT WEATHER AND/OR OBSTRUCTIONS TO VISIBILITY.

KYZ001>023-026-027-061>063-070>075-010500-
WESTERN AND SOUTH CENTRAL KENTUCKY

CITY           SKY/WX    TMP DP  RH WIND       PRES   REMARKS
PADUCAH        CLOUDY    43  23  45 CALM      30.14R
HENDERSON      CLOUDY    37  25  60 E7        30.17F WCI  32
OWENSBORO      CLOUDY    39  26  60 SE7       30.20S WCI  34
HOPKINSVILLE   CLOUDY    43  18  37 E13       30.16F
BOWLING GREEN  CLOUDY    39  24  55 SE6       30.21F WCI  35
GLASGOW        CLOUDY    37  26  64 E3        30.21F
$$

KYZ024-025-028>034-038-045-046-053-010500-
NORTH CENTRAL KENTUCKY

CITY           SKY/WX    TMP DP  RH WIND       PRES   REMARKS
LOUISVILLE/SDF CLOUDY    39  22  50 SE6       30.23F WCI  35
LOUISVILLE/LOU CLOUDY    39  21  48 SE5       30.24F
FORT KNOX      CLOUDY    37  22  55 E5        30.20F WCI  34
$$

KYZ035>037-039>044-047>052-055>060-089>105-010500-
NORTHEAST KENTUCKY

CITY           SKY/WX    TMP DP  RH WIND       PRES   REMARKS
LEXINGTON      CLOUDY    35  22  58 E5        30.24F WCI  31
COVINGTON      LGT RAIN  34  26  72 CALM      30.22F
FRANKFORT      CLOUDY    35  20  54 CALM      30.23F
$$

KYZ054-064>069-076>088-106>120-010500-
SOUTHEAST KENTUCKY

CITY           SKY/WX    TMP DP  RH WIND       PRES   REMARKS
JACKSON        CLOUDY    38   9  30 CALM      30.23F
LONDON         CLOUDY    38  17  42 E6        30.22F WCI  33
SOMERSET       CLOUDY    37  19  48 CALM      30.26R
MIDDLESBORO    CLOUDY    36  26  69 CALM      30.27S
MONTICELLO     CLOUDY    38  24  57 CALM      30.28R
$$




USA.gov is the U.S. government's official web portal to all federal, state and local government web resources and services.